Nashua, NH

5:57 AM EST on January 19, 2017 (GMT -0500)
Boire

Weather History for KASH - March, 2013

Change the Weather History Date:

Thursday, March 7, 2013

  Actual Average Record
Temperature  
Mean Temperature 32 °F -  
Max Temperature 34 °F 40 °F 68 °F (1974)
Min Temperature 30 °F 21 °F -9 °F (2003)
Degree Days  
Heating Degree Days 33    
Moisture  
Dew Point 28 °F    
Average Humidity 85    
Maximum Humidity 93    
Minimum Humidity 69    
Precipitation  
Precipitation 0.01 in - - ()
Sea Level Pressure  
Sea Level Pressure 30.31 in    
Wind  
Wind Speed 11 mph (North)    
Max Wind Speed 16 mph    
Max Gust Speed 23 mph    
Visibility 3 miles    
Events Snow    
Averages and records for this station are not official NWS values.
T = Trace of Precipitation, MM = Missing Value Source: NWS Daily Summary

Daily Weather History Graph

Daily Weather History Graph

Search for Another Location

Airport or City:

Trip Planner

Search our weather history database for the weather conditions in past years. The results will help you decide how hot, cold, wet, or windy it might be!

Date:

Astronomy

Mar. 07, 2013 Rise Set
Actual Time 6:11 AM EST 5:43 PM EST
Civil Twilight 5:43 AM EST 6:11 PM EST
Nautical Twilight 5:10 AM EST 6:44 PM EST
Astronomical Twilight 4:37 AM EST 7:17 PM EST
Moon 3:13 AM EST (3/7) 1:22 PM EST (3/7)
Length of Visible Light 12h 28m
Length of Day
11h 31m
Waning Crescent, 20% of the Moon is Illuminated
Mar 7
Waning Crescent
Mar 11
New
Mar 19
First Quarter
Mar 27
Full
Apr 3
Last Quarter

Hourly Weather History & Observations

Time (EST) Temp. Windchill Dew Point Humidity Pressure Visibility Wind Dir Wind Speed Gust Speed Precip Events Conditions
12:51 AM 32.0 °F 24.8 °F 28.0 °F 85% 30.89 in 7.0 mi NNE 8.1 mph - 0.00 in Snow Light Snow
1:51 AM 32.0 °F 22.5 °F 27.1 °F 82% 30.87 in 10.0 mi North 12.7 mph 18.4 mph 0.00 in Snow Light Snow
2:51 AM 32.0 °F 22.1 °F 27.1 °F 82% 30.85 in 10.0 mi North 13.8 mph 18.4 mph 0.00 in Snow Light Snow
3:51 AM 32.0 °F 23.0 °F 26.1 °F 79% 30.84 in 10.0 mi North 11.5 mph 20.7 mph 0.00 in Snow Light Snow
4:51 AM - - - N/A% 30.09 in 10.0 mi North 13.8 mph 23.0 mph 0.00 in   Overcast
5:36 AM 30.2 °F 21.3 °F 26.6 °F 86% 30.08 in 2.5 mi North 10.4 mph 19.6 mph 0.00 in Snow Light Snow
5:51 AM 31.1 °F 21.9 °F 26.1 °F 82% 30.85 in 6.0 mi North 11.5 mph 19.6 mph 0.00 in Snow Light Snow
6:51 AM 32.0 °F 23.0 °F 24.1 °F 73% 30.86 in 10.0 mi North 11.5 mph 20.7 mph 0.00 in Snow Light Snow
7:51 AM 32.0 °F 22.5 °F 23.0 °F 69% 30.86 in 10.0 mi NNE 12.7 mph 19.6 mph 0.00 in   Overcast
8:21 AM 32.0 °F 23.6 °F 24.8 °F 75% 30.10 in 2.5 mi North 10.4 mph 18.4 mph N/A   Haze
8:30 AM 32.0 °F 22.1 °F 24.8 °F 75% 30.10 in 3.0 mi North 13.8 mph - N/A   Haze
8:44 AM 32.0 °F 23.0 °F 26.6 °F 80% 30.10 in 2.0 mi North 11.5 mph 23.0 mph N/A   Haze
9:07 AM 32.0 °F 23.0 °F 26.6 °F 80% 30.10 in 3.0 mi North 11.5 mph - 0.00 in Snow Light Snow
9:51 AM 32.9 °F 24.7 °F 25.2 °F 73% 30.85 in 10.0 mi North 10.4 mph 18.4 mph 0.00 in   Overcast
10:51 AM 34.0 °F 25.5 °F 25.2 °F 70% 30.85 in 7.0 mi North 11.5 mph 23.0 mph N/A   Overcast
11:10 AM 33.8 °F 23.5 °F 26.6 °F 75% 30.08 in 2.5 mi North 16.1 mph 23.0 mph N/A   Haze
11:18 AM 33.8 °F 24.3 °F 28.4 °F 81% 30.09 in 3.0 mi North 13.8 mph 21.9 mph 0.00 in Snow Light Snow
11:28 AM 33.8 °F 24.3 °F 26.6 °F 75% 30.09 in 2.5 mi North 13.8 mph 17.3 mph 0.00 in Snow Light Snow
11:37 AM 33.8 °F 25.3 °F 26.6 °F 75% 30.09 in 3.0 mi North 11.5 mph 20.7 mph 0.00 in Snow Light Snow
11:51 AM 32.9 °F 24.1 °F 28.0 °F 82% 30.85 in 4.0 mi North 11.5 mph - 0.00 in Snow Light Snow
12:02 PM 33.8 °F 25.3 °F 28.4 °F 81% 30.09 in 1.8 mi North 11.5 mph 18.4 mph 0.00 in Snow Light Snow
12:23 PM 33.8 °F 25.3 °F 28.4 °F 81% 30.08 in 1.2 mi North 11.5 mph 18.4 mph 0.00 in Snow Light Snow
12:41 PM 33.8 °F 25.3 °F 28.4 °F 81% 30.08 in 1.5 mi North 11.5 mph 18.4 mph 0.00 in Snow Light Snow
12:51 PM 32.9 °F 24.7 °F 29.1 °F 86% 30.84 in 1.8 mi North 10.4 mph - 0.00 in Snow Light Snow
12:58 PM 33.8 °F 24.8 °F 28.4 °F 81% 30.07 in 2.0 mi North 12.7 mph 16.1 mph 0.00 in Snow Light Snow
1:12 PM 33.8 °F 25.3 °F 26.6 °F 75% 30.07 in 4.0 mi North 11.5 mph - 0.00 in Snow Light Snow
1:51 PM 34.0 °F 25.0 °F 28.0 °F 79% 30.83 in 3.0 mi North 12.7 mph - 0.00 in Snow Light Snow
2:25 PM 33.8 °F 26.4 °F 28.4 °F 81% 30.06 in 1.8 mi North 9.2 mph - 0.00 in Snow Light Snow
2:37 PM 33.8 °F 25.8 °F 28.4 °F 81% 30.07 in 1.2 mi North 10.4 mph 16.1 mph 0.00 in Snow Light Snow
2:41 PM 33.8 °F 25.3 °F 28.4 °F 81% 30.07 in 1.0 mi North 11.5 mph - 0.00 in Snow Light Snow
2:51 PM 32.9 °F 24.7 °F 29.1 °F 86% 30.83 in 1.0 mi North 10.4 mph - 0.01 in Snow Light Snow
3:00 PM 33.8 °F 25.8 °F 30.2 °F 87% 30.07 in 0.8 mi North 10.4 mph - 0.00 in Snow Light Snow
3:09 PM 33.8 °F 27.0 °F 30.2 °F 87% 30.07 in 1.0 mi North 8.1 mph - 0.00 in Snow Light Snow
3:16 PM 33.8 °F 25.8 °F 28.4 °F 81% 30.07 in 1.2 mi North 10.4 mph 16.1 mph 0.00 in Snow Light Snow
3:22 PM 33.8 °F 25.3 °F 28.4 °F 81% 30.07 in 0.8 mi North 11.5 mph - 0.00 in Snow Light Snow
3:32 PM 33.8 °F 25.3 °F 28.4 °F 81% 30.07 in 1.2 mi North 11.5 mph - 0.00 in Snow Light Snow
3:51 PM 32.0 °F 24.2 °F 30.0 °F 92% 30.84 in 0.8 mi North 9.2 mph - 0.00 in Snow Light Snow
4:13 PM 32.0 °F 23.0 °F 30.2 °F 93% 30.07 in 0.5 mi North 11.5 mph 16.1 mph 0.00 in Snow Light Snow
4:38 PM 32.0 °F 23.6 °F 28.4 °F 87% 30.07 in 0.5 mi North 10.4 mph - 0.00 in Snow Light Snow
4:51 PM 32.0 °F 24.2 °F 29.1 °F 89% 30.08 in 0.5 mi North 9.2 mph - 0.00 in Snow Light Snow
4:56 PM 32.0 °F 24.2 °F 28.4 °F 87% 30.08 in 0.8 mi North 9.2 mph - 0.00 in Snow Light Snow
5:51 PM 31.1 °F 23.1 °F 29.1 °F 92% 30.85 in 1.0 mi North 9.2 mph - 0.00 in Snow Light Snow
6:08 PM 30.2 °F 21.3 °F 28.4 °F 93% 30.08 in 1.2 mi North 10.4 mph - 0.00 in Snow Light Snow
6:51 PM 31.1 °F 22.4 °F 29.1 °F 92% 30.84 in 3.0 mi North 10.4 mph - 0.00 in   Overcast
7:04 PM 30.2 °F 21.3 °F 28.4 °F 93% 30.07 in 5.0 mi North 10.4 mph - N/A   Mostly Cloudy
7:17 PM 30.2 °F 21.9 °F 28.4 °F 93% 30.07 in 6.0 mi North 9.2 mph - N/A   Overcast
7:44 PM 30.2 °F 20.8 °F 28.4 °F 93% 30.07 in 2.5 mi North 11.5 mph - N/A   Overcast
7:51 PM 31.1 °F 23.1 °F 28.0 °F 88% 30.84 in 2.0 mi North 9.2 mph - N/A   Overcast
7:56 PM 30.2 °F 21.3 °F 28.4 °F 93% 30.07 in 1.2 mi North 10.4 mph - 0.00 in Snow Light Snow
8:03 PM 30.2 °F 20.8 °F 28.4 °F 93% 30.07 in 1.2 mi North 11.5 mph - 0.00 in Snow Light Snow
8:08 PM 30.2 °F 20.8 °F 28.4 °F 93% 30.07 in 1.8 mi North 11.5 mph - 0.00 in Snow Light Snow
8:16 PM 30.2 °F 20.2 °F 28.4 °F 93% 30.07 in 2.5 mi North 12.7 mph - 0.00 in Snow Light Snow
8:26 PM 30.2 °F 21.9 °F 28.4 °F 93% 30.07 in 1.2 mi North 9.2 mph - 0.00 in Snow Light Snow
8:35 PM 30.2 °F 21.3 °F 28.4 °F 93% 30.07 in 1.0 mi North 10.4 mph - 0.00 in Snow Light Snow
8:51 PM 31.1 °F 23.1 °F 28.0 °F 88% 30.83 in 1.2 mi North 9.2 mph - 0.00 in   Clear
9:13 PM 30.2 °F 22.6 °F 28.4 °F 93% 30.06 in 1.2 mi North 8.1 mph - N/A   Mostly Cloudy
9:20 PM 30.2 °F 22.6 °F 28.4 °F 93% 30.06 in 1.0 mi North 8.1 mph - N/A   Mist
9:31 PM 30.2 °F 21.3 °F 28.4 °F 93% 30.06 in 1.5 mi North 10.4 mph - N/A   Mostly Cloudy
9:51 PM 30.0 °F 21.1 °F 28.0 °F 92% 30.82 in 2.0 mi North 10.4 mph - N/A   Mostly Cloudy
10:03 PM 30.2 °F 19.8 °F 28.4 °F 93% 30.05 in 3.0 mi North 13.8 mph - N/A   Mostly Cloudy
10:11 PM 30.2 °F 21.3 °F 28.4 °F 93% 30.05 in 3.0 mi North 10.4 mph - N/A   Mostly Cloudy
10:31 PM 30.2 °F 21.9 °F 28.4 °F 93% 30.04 in 2.0 mi North 9.2 mph - N/A   Mostly Cloudy
10:36 PM 30.2 °F 21.3 °F 28.4 °F 93% 30.04 in 2.0 mi North 10.4 mph - N/A   Scattered Clouds
10:51 PM 30.0 °F 21.1 °F 28.0 °F 92% 30.80 in 2.5 mi North 10.4 mph - N/A   Scattered Clouds
11:04 PM 30.2 °F 20.2 °F 28.4 °F 93% 30.04 in 1.8 mi North 12.7 mph - N/A   Mostly Cloudy
11:23 PM 30.2 °F 21.3 °F 26.6 °F 86% 30.04 in 2.0 mi North 10.4 mph - N/A   Overcast
11:34 PM 30.2 °F 21.9 °F 28.4 °F 93% 30.03 in 3.0 mi North 9.2 mph - N/A   Overcast
11:51 PM 30.0 °F 20.5 °F 27.1 °F 89% 30.79 in 2.5 mi North 11.5 mph - N/A   Overcast